Regional Weather Roundup
Issued by NWS Newport/Morehead, NC

Home | Current Version | Previous Version | Text Only | Print | Product List | Glossary On
Versions: 1 2 3 4 5 6 7 8 9 10 11 12 13 14 15 16 17 18 19 20 21 22 23 24 25 26 27 28 29 30 31 32 33 34 35 36 37 38 39 40 41 42 43 44 45 46 47 48 49 50
000
ASUS42 KMHX 280825
RWRMHX
WEATHER ROUNDUP FOR EASTERN NORTH CAROLINA
NATIONAL WEATHER SERVICE NEWPORT/MOREHEAD CITY NC
400 AM EDT TUE JUL 28 2015

NOTE: "FAIR" INDICATES FEW OR NO CLOUDS BELOW 12,000 FEET
WITH NO SIGNIFICANT WEATHER AND/OR OBSTRUCTIONS TO VISIBILITY

NCZ015>017-031-032-045>047-102-103-280900-
NORTH COAST

CITY           SKY/WX    TMP DP  RH WIND       PRES   REMARKS
EDENTON        CLEAR     72  70  93 CALM      30.01S
ELIZABETH CITY CLEAR     72  71  97 CALM      30.01S
KITTY HAWK     SUNNY     73  67  82 CALM      30.00S
MANTEO         CLEAR     70  68  93 CALM      30.01S

$$

NCZ045>047-081-094-103-104-280900-
CENTRAL COAST

CITY           SKY/WX    TMP DP  RH WIND       PRES   REMARKS
FRISCO         CLEAR     73  69  87 NE5       30.00F
SWANQUARTER      N/A     72 N/A N/A E2        29.97S

$$

NCZ095-097-098-100-101-280900-
SOUTHERN COAST

CITY           SKY/WX    TMP DP  RH WIND       PRES   REMARKS
BEAUFORT       CLEAR     74  72  93 NE3       29.99S
CEDAR ISLAND     N/A     77 N/A N/A E5        30.03S
JACKSONVILLE   CLEAR     74  70  87 CALM      29.98F
PINEY ISLAND   SUNNY    N/A N/A N/A E3        29.99S
WILMINGTON     CLEAR     72  70  93 NE3       29.97F


$$

NCZ011>013-027>030-043-044-078>080-089-090>093-098-280900-
COASTAL PLAIN

CITY           SKY/WX    TMP DP  RH WIND       PRES   REMARKS
AHOSKIE        CLEAR     68  67  96 CALM      30.01S
CLINTON        PTCLDY    72  72  99 CALM      30.00S
ELIZABETHTOWN  PTCLDY    72  72 100 CALM      29.99S
GOLDSBORO      PTCLDY    71  71 100 CALM      29.98F
GREENVILLE     CLEAR     70  70 100 CALM      30.02S FOG
HAVELOCK       CLEAR     73  70  90 CALM      30.00F
KENANSVILLE    PTCLDY    69  68  96 CALM      30.00F
KINSTON        CLEAR     70  69  96 CALM      30.01S
NEW BERN       CLEAR     72  69  90 CALM      30.00F
RICHLANDS      CLEAR     70  64  83 CALM      29.99F
ROCKY MOUNT    CLEAR     70  69  97 CALM      30.00F FOG
WASHINGTON     CLEAR     70  68  96 CALM      30.01S
WHITEVILLE     CLEAR     72  71  95 CALM      29.98S FOG

$$

AMZ130-135-150-152-154-156-158-170-250-252-270-ANZ085-086-088-633-658-670-280900-
MARINE OBSERVATIONS

STATION/POSITION TIME  TEMP    WIND        PRES    WAVE   SWELL
                       AIR SEA DIR/SP/G            HT/PER HT/PER
                 (UTC) (F)     (DEG/KT/KT) (MB)    (FT/S) (FT/S)
CHESAPEAKE LIGHT 0800   79     210/  9/ 10 1016.8
64 E VA BEACH    0750   80 80  190/  6/  6 1016.1    3/11   3/11
DUCK             0800   78 76  170/  4/  5 1015.3
2 E DUCK         0711      79                N/A     2/ 6
OREGON INLET     0800   77 81  110/  3/  3 1016.0
13E OREGON INLT  0800      79                N/A     2/12   2/12
HATTERAS CG      0800   78 82   40/  2/  3 1015.5
DIAMOND BUOY     NOT AVBL
CAPE LOOKOUT     0800   80      80/  8/  9 1015.0
BEAUFORT LAB     0800   76 81   40/  4/  5 1014.6
30 SE NEW RVR IN NOT AVBL
27 SE WRIGHTSVLE 0800   78 81   90/  8/ 10   N/A
5 SE WRIGHTSVLE  0708   81 81   90/  8/ 10 1014.9
225 S CAPE HAT   0750   82 82  250/ 14/ 16 1014.2    5/ 6   3/ 8
41 SE CHARLESTON 0750   82 84   40/  6/  6 1013.0    3/ 7   3/ 7

$$



USA.gov is the U.S. government's official web portal to all federal, state and local government web resources and services.